Location: Little Chesterford
(52.0500°N, 0.1833°E)
Time: 23:32:33
(UTC+00:00)

Cosmos 1459 Rocket - Visible Passes

Search period start: 13 April 2024 00:00
Search period end: 23 April 2024 00:00
Orbit: 935 x 1000 km, 83.0° (Epoch: 13 April)

Date Brightness Start Highest point End Pass type
(mag) Time Alt. Az. Time Alt. Az. Time Alt. Az.
13 Apr 5.7 20:34:27 10° NNE 20:38:12 17° NE 20:41:05 12° E visible
13 Apr 3.8 22:18:29 10° N 22:24:34 75° ENE 22:25:35 61° SE visible
14 Apr 5.5 00:04:39 10° NNW 00:09:09 22° W 00:10:06 21° W visible
14 Apr 5.2 20:56:51 10° N 21:01:46 25° ENE 21:04:10 20° E visible
14 Apr 4.0 22:41:34 10° NNW 22:47:36 71° W 22:48:40 58° SSW visible
15 Apr 6.0 00:28:52 10° NW 00:31:42 14° WNW 00:33:10 13° W visible
15 Apr 4.7 21:19:33 10° N 21:25:11 38° ENE 21:27:15 30° ESE visible
15 Apr 4.6 23:04:48 10° NNW 23:10:30 44° W 23:11:45 39° WSW visible
16 Apr 5.9 19:58:56 10° NNE 20:01:47 13° NE 20:04:38 10° E visible
16 Apr 4.1 21:42:26 10° N 21:48:26 59° ENE 21:50:21 41° SE visible
16 Apr 5.3 23:28:14 10° NNW 23:33:16 28° W 23:34:51 25° WSW visible
17 Apr 5.5 20:21:02 10° NNE 20:25:26 20° ENE 20:28:57 13° E visible
17 Apr 3.8 22:05:27 10° N 22:11:32 89° W 22:13:28 47° S visible
17 Apr 5.8 23:52:02 10° NW 23:55:54 18° WNW 23:57:58 15° WSW visible
18 Apr 4.9 20:43:37 10° N 20:48:56 31° ENE 20:52:04 20° ESE visible
18 Apr 4.3 22:28:35 10° NNW 22:34:30 57° W 22:36:35 38° SSW visible
19 Apr 6.3 00:17:17 10° WNW 00:18:22 10° WNW 00:19:29 10° W visible
19 Apr 4.4 21:06:24 10° N 21:12:16 47° ENE 21:15:13 27° SE visible
19 Apr 5.0 22:51:55 10° NNW 22:57:21 36° W 22:59:44 26° SW visible
20 Apr 5.7 19:45:20 10° NNE 19:49:04 16° NE 19:52:48 10° E visible
20 Apr 3.9 21:29:20 10° N 21:35:26 74° ENE 21:38:22 33° SSE visible
20 Apr 5.7 23:15:29 10° NNW 23:20:03 23° W 23:22:52 16° WSW visible
21 Apr 5.2 20:07:43 10° N 20:12:38 25° ENE 20:17:02 12° ESE visible
21 Apr 4.1 21:52:25 10° NNW 21:58:29 72° W 22:01:33 31° S visible
21 Apr 6.2 23:39:38 10° NW 23:42:37 14° WNW 23:45:35 10° WSW visible
22 Apr 4.6 20:30:25 10° N 20:36:03 38° ENE 20:40:13 17° SE visible
22 Apr 4.7 22:15:39 10° NNW 22:21:23 45° W 22:24:44 24° SSW visible
